Location: Edoum�
(0.9447°N, 10.6482°E)
Time: 14:17:25
(UTC+00:00)

Cosmos 1689 Rocket - Pass Details

Date: 07 June 2020
Orbit: 367 x 382 km, 97.5° (Epoch: 07 July)

Event Time Altitude Azimuth Distance (km) Brightness Sun altitude
Rises 04:07:08 0° 164° (SSE) 2,217 5.8 -15.5°
Reaches altitude 10° 04:09:05 10° 160° (SSE) 1,367 4.8 -15.1°
Maximum altitude 04:11:57 61° 79° (E) 424 2.5 -14.4°
Drops below altitude 10° 04:14:50 10° 358° (N) 1,368 5.1 -13.8°
Sets 04:16:47 0° 354° (N) 2,217 6.2 -13.3°
